FW5858 Weather Reports


Display with metric or nautical units.
time (UTC)temp
F
wind
direction
speed
MPH
gust
MPH
rain 1hr
in
rain 24hr
in
rain mn
in
humidity
%
barometer
mb
20260510224535 63 14 1.0 3.0 0.00 0.04 0.00 42 1018.2
20260510223028 64 297 1.0 4.0 0.00 0.04 0.00 41 1018.2
20260510221612 63 194 1.0 3.0 0.00 0.04 0.00 43 1017.9
20260510220041 63 117 0.0 3.0 0.00 0.04 0.00 46 1018.0
20260510214523 63 115 0.0 2.0 0.00 0.04 0.00 44 1017.7
20260510213009 64 107 1.0 7.0 0.00 0.04 0.00 42 1017.5
20260510211518 65 290 1.0 4.0 0.00 0.04 0.00 42 1017.3
20260510210025 66 149 1.0 4.0 0.00 0.04 0.00 41 1017.1
20260510204539 68 315 1.0 3.0 0.00 0.04 0.00 37 1017.2
20260510203017 68 271 1.0 4.0 0.00 0.04 0.00 38 1017.3
20260510201527 66 87 1.0 6.0 0.00 0.04 0.00 41 1017.3
20260510200019 65 71 0.0 2.0 0.00 0.04 0.00 42 1017.5
20260510194535 65 290 1.0 3.0 0.00 0.04 0.00 44 1017.6
20260510193026 67 309 1.0 4.0 0.00 0.04 0.00 44 1017.5
20260510191514 66 117 1.0 4.0 0.00 0.04 0.00 43 1017.9
20260510190035 66 303 1.0 2.0 0.00 0.04 0.00 46 1017.5
20260510184523 66 299 0.0 3.0 0.00 0.04 0.00 47 1017.6
20260510183028 66 304 1.0 6.0 0.00 0.04 0.00 48 1017.5
20260510181508 67 290 2.0 4.0 0.00 0.04 0.00 47 1017.5
20260510180020 66 306 1.0 6.0 0.00 0.04 0.00 46 1017.5
20260510174516 65 250 1.0 3.0 0.00 0.04 0.00 45 1017.1
20260510173004 66 277 1.0 3.0 0.00 0.04 0.00 46 1017.0
20260510171512 65 134 1.0 4.0 0.00 0.04 0.00 50 1017.2
20260510170017 65 138 1.0 3.0 0.00 0.04 0.00 46 1017.1
20260510164503 64 283 0.0 2.0 0.00 0.04 0.00 49 1017.4
20260510163005 64 117 1.0 4.0 0.00 0.04 0.00 44 1017.1
20260510161521 63 128 1.0 5.0 0.00 0.04 0.00 49 1017.3
20260510160059 63 303 1.0 6.0 0.00 0.04 0.00 55 1017.0
20260510154530 62 130 1.0 4.0 0.00 0.04 0.00 54 1016.8
20260510153011 62 270 0.0 3.0 0.00 0.04 0.00 52 1016.7
20260510151521 61 236 1.0 6.0 0.00 0.04 0.00 56 1016.4
20260510150016 60 105 1.0 3.0 0.00 0.04 0.00 53 1016.4
20260510144534 60 237 1.0 2.0 0.00 0.04 0.00 55 1016.2
20260510143024 59 88 0.0 3.0 0.00 0.04 0.00 56 1015.8
20260510141507 57 259 0.0 2.0 0.00 0.04 0.00 58 1015.6
20260510140009 56 288 1.0 3.0 0.00 0.04 0.00 59 1015.5
20260510134609 56 214 0.0 2.0 0.00 0.04 0.00 59 1015.4
20260510133021 56 98 1.0 3.0 0.00 0.04 0.00 59 1015.2
20260510131504 55 291 1.0 3.0 0.00 0.04 0.00 59 1015.2
20260510130035 54 113 0.0 2.0 0.00 0.04 0.00 60 1015.1
20260510124512 54 113 0.0 2.0 0.00 0.04 0.00 63 1014.9
20260510123021 53 95 0.0 2.0 0.00 0.04 0.00 64 1014.6
20260510121530 53 115 0.0 2.0 0.00 0.04 0.00 65 1014.3
20260510120014 53 113 0.0 2.0 0.00 0.04 0.00 65 1014.2
20260510114523 53 105 0.0 0.0 0.00 0.04 0.00 66 1014.1
20260510113038 53 111 0.0 2.0 0.00 0.04 0.00 65 1013.7
20260510111530 53 126 0.0 2.0 0.00 0.04 0.00 64 1013.6
20260510110034 53 360 0.0 2.0 0.00 0.04 0.00 65 1013.4
20260510104524 54 118 1.0 2.0 0.00 0.04 0.00 65 1013.0
20260510103014 54 130 0.0 2.0 0.00 0.04 0.00 69 1012.7
20260510101522 55 117 0.0 2.0 0.00 0.04 0.00 68 1012.5
20260510100032 55 88 0.0 2.0 0.00 0.04 0.00 68 1012.4
20260510094507 55 111 0.0 3.0 0.00 0.04 0.00 64 1012.0
20260510093012 56 121 0.0 2.0 0.00 0.04 0.00 66 1011.7
20260510091517 56 156 0.0 2.0 0.00 0.04 0.00 67 1011.5
20260510090027 57 61 0.0 3.0 0.00 0.04 0.00 68 1011.2
20260510084528 57 225 0.0 3.0 0.00 0.04 0.00 67 1010.9
20260510083016 58 104 0.0 2.0 0.00 0.04 0.00 66 1010.8
20260510081519 58 98 0.0 2.0 0.00 0.04 0.00 67 1010.6
20260510080024 58 123 0.0 3.0 0.00 0.04 0.00 69 1010.4
20260510074535 59 20 0.0 2.0 0.00 0.04 0.00 71 1010.3
20260510073030 59 307 0.0 2.0 0.00 0.04 0.00 73 1010.1
20260510071517 59 308 0.0 2.0 0.00 0.04 0.00 72 1010.1
20260510070020 59 307 1.0 2.0 0.00 0.04 0.00 71 1010.0
20260510064524 60 306 0.0 2.0 0.00 0.04 0.00 70 1009.9
20260510063027 60 307 0.0 2.0 0.00 0.04 0.00 69 1009.8
20260510061531 60 288 1.0 2.0 0.00 0.04 0.00 69 1009.8
20260510060020 61 296 1.0 3.0 0.00 0.04 0.00 69 1009.9
20260510054504 62 290 1.0 3.0 0.00 0.04 0.00 70 1009.9
20260510053008 61 255 1.0 2.0 0.00 0.04 0.00 71 1009.8
20260510051510 61 245 0.0 2.0 0.00 0.04 0.00 71 1009.5
20260510050016 61 242 0.0 2.0 0.00 0.04 0.00 71 1009.5
20260510044507 61 242 0.0 2.0 0.00 0.04 0.00 70 1009.3
20260510043008 61 242 0.0 2.0 0.00 0.04 0.00 70 1009.3
20260510041509 61 241 0.0 2.0 0.00 0.04 0.00 70 1009.1
20260510040016 61 242 0.0 2.0 0.00 0.04 0.00 69 1009.1
20260510034522 62 242 0.0 2.0 0.00 0.04 0.04 68 1008.9
20260510033003 62 242 1.0 2.0 0.00 0.04 0.04 67 1008.8
20260510031510 62 227 0.0 2.0 0.00 0.04 0.04 68 1008.7
20260510030015 62 227 0.0 2.0 0.00 0.04 0.04 67 1008.7
20260510024522 63 227 0.0 2.0 0.00 0.04 0.04 66 1008.8
20260510023022 63 227 1.0 2.0 0.00 0.04 0.04 64 1008.5
20260510021507 63 227 0.0 2.0 0.00 0.04 0.04 64 1008.2
20260510020012 64 226 1.0 1.0 0.00 0.04 0.04 63 1008.0
20260510014517 64 226 1.0 2.0 0.00 0.04 0.04 62 1007.8
20260510013028 65 232 0.0 2.0 0.00 0.04 0.04 61 1007.6
20260510011526 66 232 0.0 2.0 0.00 0.04 0.04 59 1007.5
20260510010010 67 231 1.0 2.0 0.00 0.04 0.04 56 1007.3
20260510004516 67 208 1.0 2.0 0.00 0.05 0.04 56 1007.2
20260510003022 67 254 1.0 3.0 0.00 0.05 0.04 54 1007.1
20260510001536 68 202 1.0 3.0 0.00 0.05 0.04 54 1006.9
20260510000007 68 246 2.0 3.0 0.04 0.05 0.04 54 1006.7
20260509234515 69 250 2.0 5.0 0.04 0.05 0.04 54 1006.6
20260509233030 69 252 2.0 4.0 0.04 0.05 0.04 54 1006.4
20260509231525 69 238 2.0 5.0 0.04 0.05 0.04 54 1006.4
20260509230028 69 193 2.0 6.0 0.00 0.01 0.00 54 1006.3